{"data":{"norad_id":82693,"intl_designator":"","name":"UNKNOWN","alt_names":[],"object_type":"UNKNOWN","status":"UNKNOWN","operator":null,"country":null,"launch_date":null,"launch_site_code":null,"launch_vehicle":null,"mission":null,"orbit_class":"UNKNOWN","rcs_meters":null,"size_class":null,"mass_kg":null,"dimensions":null,"purposes":[],"wikipedia_slug":null,"has_3d_model":false,"image_url":null,"decayed_at":null,"tle_current":{"epoch":"2026-09-17T06:22:39.861696Z","epoch_age_seconds":297797,"freshness":"STALE","line1":"1 82693U          26260.26573914  .00001699  00000+0  19523-2 0  9997","line2":"2 82693 100.5286 254.6632 0044897  48.6349 311.8642 13.70805386591906","mean_motion":13.70805386,"eccentricity":0.0044897,"inclination_deg":100.5286,"raan_deg":254.6632,"arg_perigee_deg":48.6349,"mean_anomaly_deg":311.8642,"bstar":0.0019523,"rev_number":59190,"period_min":105.04773432514,"perigee_km":963.57027203559,"apogee_km":1029.7917127163,"semimajor_km":7374.817992376,"source":"CELESTRAK","updated_at":"2026-09-20T09:00:32.437897Z"}}}